Regional Weather Roundup
Issued by NWS Northern Indiana

Home | Current Version | Previous Version | Graphics & Text | Print | Product List | Glossary On
Versions: 1 2 3 4 5 6 7 8 9 10 11 12 13 14 15 16 17 18 19 20 21 22 23 24 25 26 27 28 29 30 31 32 33 34 35 36 37 38 39 40 41 42 43 44 45 46 47 48 49 50
000
ASUS43 KIWX 280310
RWRIWX

KIWX WEATHER ROUNDUP
NATIONAL WEATHER SERVICE NORTHERN INDIANA
1100 PM EDT TUE SEP 27 2016

NOTE: "FAIR" INDICATES FEW OR NO CLOUDS BELOW 12,000 FEET WITH NO
SIGNIFICANT WEATHER AND/OR OBSTRUCTIONS TO VISIBILITY.

* THESE STATIONS ARE NOT UNDER NWS QUALITY CONTROL. THEY ALSO MAY NOT
  REPORT WEATHER SUCH AS PRECIPITATION OR FOG.

INZ001>027-280400-
NORTHERN INDIANA

CITY           SKY/WX    TMP DP  RH WIND       PRES   REMARKS
GARY*          MOCLDY    55  43  62 S6        29.78S
VALPARAISO     MOCLDY    54  38  54 CALM      29.79S
MICHIGAN CITY* MOCLDY    54  43  66 MISG      29.79R
LAPORTE*       MOCLDY    53  46  77 CALM      29.79S
KNOX*          MOCLDY    48  32  53 CALM      29.79S
SOUTH BEND     PTCLDY    56  46  69 CALM      29.81R
GOSHEN         MOCLDY    50  42  74 CALM      29.80R
MONTICELLO*    PTCLDY    54  35  48 CALM      29.80S
LOGANSPORT*    PTCLDY    46  41  81 S3        29.81F
ROCHESTER*     PTCLDY    52  45  76 CALM      29.81S
WARSAW*        PTCLDY    48  36  61 CALM      29.81R
ANGOLA*          N/A     50  45  81 CALM      29.81R
FORT WAYNE     CLOUDY    51  42  71 CALM      29.81S
HUNTINGTON*    PTCLDY    52  42  69 CALM      29.81S
PERU/GRISSOM   PTCLDY    55  40  56 SW2       29.79S
MARION*        PTCLDY    51  42  70 CALM      29.82S

$$
INZ028>050-280400-
CENTRAL INDIANA

CITY           SKY/WX    TMP DP  RH WIND       PRES   REMARKS
LAFAYETTE      PTCLDY    51  45  79 CALM      29.80S
MUNCIE*        CLEAR     63  45  51 SW6       29.83R
INDIANAPOLIS   PTCLDY    60  48  64 SW5       29.83S

$$
MIZ043>046-050>051-056>058-064>065-071>073-077>080-280400-
SOUTHWEST LOWER MICHIGAN

CITY           SKY/WX    TMP DP  RH WIND       PRES   REMARKS
BATTLE CREEK   MOCLDY    54  48  80 N5        29.82R
BENTON HARBOR  CLOUDY    54  48  80 E3        29.79R
COLDWATER*     MOCLDY    51  45  82 CALM      29.81R
HILLSDALE*     PTCLDY    48  45  87 CALM      29.81R
HOLLAND        LGT RAIN  55  51  86 N3        29.78F
GRAND RAPIDS   LGT RAIN  53  48  83 W5        29.79F
KALAMAZOO      PTCLDY    56  47  71 CALM      29.81S
STURGIS*       PTCLDY    55  45  68 NE6       29.80R
THREE RIVERS*  FAIR      54  48  80 CALM      29.81S

$$
OHZ001>008-015>018-024>025-280400-
NORTHWEST OHIO

CITY           SKY/WX    TMP DP  RH WIND       PRES   REMARKS
WAUSEON*       FAIR      48  43  81 CALM      29.81S
DEFIANCE       PTCLDY    52  44  74 CALM      29.81R
FINDLAY        CLEAR     54  41  61 S7        29.81S
TOLEDO EXPRESS PTCLDY    49  47  93 CALM      29.81R
TOLEDO METCALF PTCLDY    53  44  71 CALM      29.82R
LIMA           CLEAR     56  45  66 S8        29.83S

$$
AND FOR LAKE MICHIGAN COASTAL AND OPEN LAKE BUOY OBSERVATIONS

STATION/POSITION TEMP    WIND        PRES    VSBY  WAVE
                 AIR SEA DIR/SP/G                  HT/PER
                 (F)     (DEG/KT/KT) (MB)    (MI)  (FT/S)
CALUMET HARBOR    62     220/  2/  4 1007.8F
MICHIGAN CITY     66     260/ 13/ 15   N/A
BURNS HARBOR      65     210/  5/  6 1008.8S
SAINT JOSEPH      57      50/  1/  3 1009.1
SOUTH LAKE BUOY   58 70  330/ 10/ 16 1008.1R         3/ 5
4 MI NW BRIDGMAN  60 67   80/  8/ 12 1008.8          3/ 5
MICHIGAN CITY     64 67   60/ 12/ 16   N/A           3/ 5

$$
&&




USA.gov is the U.S. government's official web portal to all federal, state and local government web resources and services.